Time,TemperatureF,DewpointF,PressureIn,WindDirection,WindDirectionDegrees,WindSpeedMPH,WindSpeedGustMPH,Humidity,HourlyPrecipIn,Conditions,Clouds,dailyrainin,SoftwareType,DateUTC
2013-04-20 04:39:00,27.9,1.9,29.68,West,267,3.0,4.9,32,0.00,,,-99.99,FreeWX 2.04,2013-04-20 08:39:00,
2013-04-20 17:07:00,40.5,3.6,30.15,WNW,282,2.0,4.9,21,0.00,,,-99.99,FreeWX 2.04,2013-04-20 21:07:00,
2013-04-20 17:13:00,40.3,3.6,30.15,WNW,291,2.0,9.2,21,0.00,,,-99.99,FreeWX 2.04,2013-04-20 21:13:00,
2013-04-20 17:18:00,40.8,3.9,30.15,WNW,301,2.0,4.0,21,0.00,,,-99.99,FreeWX 2.04,2013-04-20 21:18:00,
2013-04-20 17:23:00,41.5,4.5,30.15,WNW,284,2.0,7.8,21,0.00,,,-99.99,FreeWX 2.04,2013-04-20 21:23:00,
2013-04-20 17:28:00,39.9,0.0,30.15,WNW,295,2.0,4.9,18,0.00,,,-99.99,FreeWX 2.04,2013-04-20 21:28:00,
2013-04-20 17:33:00,38.7,2.1,30.15,NW,310,2.0,6.7,21,0.00,,,-99.99,FreeWX 2.04,2013-04-20 21:33:00,
2013-04-20 17:38:00,38.1,1.8,30.15,NNW,328,2.0,7.8,21,0.00,,,-99.99,FreeWX 2.04,2013-04-20 21:38:00,
2013-04-20 17:43:00,38.1,1.8,30.15,North,352,2.0,8.3,21,0.00,,,-99.99,FreeWX 2.04,2013-04-20 21:43:00,
2013-04-20 17:48:00,39.6,2.8,30.15,WNW,294,2.0,7.8,21,0.00,,,-99.99,FreeWX 2.04,2013-04-20 21:48:00,
2013-04-20 17:53:00,39.6,2.8,30.18,NW,306,1.0,4.5,21,0.00,,,-99.99,FreeWX 2.04,2013-04-20 21:53:00,
2013-04-20 17:58:00,39.2,2.7,30.18,North,-999,0.0,5.4,21,0.00,,,-99.99,FreeWX 2.04,2013-04-20 21:58:00,
2013-04-20 18:03:00,38.1,1.8,30.18,NW,313,1.0,6.3,21,0.00,,,-99.99,FreeWX 2.04,2013-04-20 22:03:00,
2013-04-20 18:08:00,37.2,-1.1,30.18,NW,309,2.0,6.3,19,0.00,,,-99.99,FreeWX 2.04,2013-04-20 22:08:00,
2013-04-20 18:13:00,37.6,1.2,30.18,WNW,300,2.0,5.8,21,0.00,,,-99.99,FreeWX 2.04,2013-04-20 22:13:00,
2013-04-20 18:18:00,37.9,1.6,30.18,WNW,301,1.0,5.8,21,0.00,,,-99.99,FreeWX 2.04,2013-04-20 22:18:00,
2013-04-20 18:23:00,37.9,1.6,30.18,WNW,285,1.0,6.9,21,0.00,,,-99.99,FreeWX 2.04,2013-04-20 22:23:00,
2013-04-20 18:28:00,37.9,1.6,30.18,WNW,287,2.0,8.3,21,0.00,,,-99.99,FreeWX 2.04,2013-04-20 22:28:00,
2013-04-20 18:33:00,38.7,2.1,30.18,NW,306,2.0,8.3,21,0.00,,,-99.99,FreeWX 2.04,2013-04-20 22:33:00,
2013-04-20 18:38:00,37.4,1.0,30.18,NW,317,1.0,5.4,21,0.00,,,-99.99,FreeWX 2.04,2013-04-20 22:38:00,
2013-04-20 18:43:00,36.5,0.3,30.18,North,-999,0.0,3.6,21,0.00,,,-99.99,FreeWX 2.04,2013-04-20 22:43:00,
2013-04-20 18:48:00,36.5,1.4,30.18,North,-999,0.0,5.8,22,0.00,,,-99.99,FreeWX 2.04,2013-04-20 22:48:00,
2013-04-20 18:53:00,35.8,0.7,30.21,WNW,295,1.0,5.8,22,0.00,,,-99.99,FreeWX 2.04,2013-04-20 22:53:00,
2013-04-20 18:58:00,36.3,1.2,30.21,WNW,290,1.0,4.9,22,0.00,,,-99.99,FreeWX 2.04,2013-04-20 22:58:00,
2013-04-20 19:03:00,36.9,0.7,30.21,WNW,295,2.0,6.7,21,0.00,,,-99.99,FreeWX 2.04,2013-04-20 23:03:00,
2013-04-20 19:08:00,36.5,0.3,30.21,NE,42,1.0,4.9,21,0.00,,,-99.99,FreeWX 2.04,2013-04-20 23:08:00,
2013-04-20 19:13:00,36.1,1.0,30.21,North,-999,0.0,5.4,22,0.00,,,-99.99,FreeWX 2.04,2013-04-20 23:13:00,
2013-04-20 19:18:00,36.0,0.9,30.21,North,-999,0.0,0.0,22,0.00,,,-99.99,FreeWX 2.04,2013-04-20 23:18:00,
2013-04-20 19:23:00,35.8,0.7,30.21,North,-999,0.0,0.0,22,0.00,,,-99.99,FreeWX 2.04,2013-04-20 23:23:00,
2013-04-20 19:28:00,35.8,0.7,30.21,North,-999,0.0,3.1,22,0.00,,,-99.99,FreeWX 2.04,2013-04-20 23:28:00,
2013-04-20 19:33:00,35.8,0.7,30.21,North,-999,0.0,0.0,22,0.00,,,-99.99,FreeWX 2.04,2013-04-20 23:33:00,
2013-04-20 19:38:00,35.8,0.7,30.21,North,-999,0.0,3.6,22,0.00,,,-99.99,FreeWX 2.04,2013-04-20 23:38:00,
2013-04-20 19:43:00,35.6,0.5,30.21,North,-999,0.0,4.0,22,0.00,,,-99.99,FreeWX 2.04,2013-04-20 23:43:00,
2013-04-20 19:48:00,35.1,0.1,30.21,North,-999,0.0,0.0,22,0.00,,,-99.99,FreeWX 2.04,2013-04-20 23:48:00,
2013-04-20 19:53:00,34.3,-0.6,30.21,North,-999,0.0,4.0,22,0.00,,,-99.99,FreeWX 2.04,2013-04-20 23:53:00,
2013-04-20 19:58:00,33.6,-1.1,30.21,North,-999,0.0,0.0,22,0.00,,,-99.99,FreeWX 2.04,2013-04-20 23:58:00,
2013-04-20 20:03:00,33.1,-1.7,30.21,North,-999,0.0,0.0,22,0.00,,,-99.99,FreeWX 2.04,2013-04-21 00:03:00,
2013-04-20 20:08:00,32.5,-1.1,30.24,North,-999,0.0,0.0,23,0.00,,,-99.99,FreeWX 2.04,2013-04-21 00:08:00,
2013-04-20 20:13:00,32.2,-1.5,30.24,North,-999,0.0,0.0,23,0.00,,,-99.99,FreeWX 2.04,2013-04-21 00:13:00,
2013-04-20 20:18:00,31.8,-1.7,30.24,North,-999,0.0,0.0,23,0.00,,,-99.99,FreeWX 2.04,2013-04-21 00:18:00,
2013-04-20 20:23:00,31.6,-1.8,30.24,North,-999,0.0,0.0,23,0.00,,,-99.99,FreeWX 2.04,2013-04-21 00:23:00,
2013-04-20 20:28:00,31.5,-2.0,30.24,North,-999,0.0,0.0,23,0.00,,,-99.99,FreeWX 2.04,2013-04-21 00:28:00,
2013-04-20 20:33:00,31.3,-2.2,30.24,North,-999,0.0,0.0,23,0.00,,,-99.99,FreeWX 2.04,2013-04-21 00:33:00,
2013-04-20 20:38:00,31.1,-2.4,30.24,North,-999,0.0,0.0,23,0.00,,,-99.99,FreeWX 2.04,2013-04-21 00:38:00,
2013-04-20 20:43:00,30.7,-0.9,30.24,North,-999,0.0,0.0,25,0.00,,,-99.99,FreeWX 2.04,2013-04-21 00:43:00,
2013-04-20 20:48:00,30.4,-1.1,30.24,North,-999,0.0,0.0,25,0.00,,,-99.99,FreeWX 2.04,2013-04-21 00:48:00,
2013-04-20 20:53:00,29.8,-1.7,30.27,North,-999,0.0,0.0,25,0.00,,,-99.99,FreeWX 2.04,2013-04-21 00:53:00,
2013-04-20 20:58:00,29.5,-2.0,30.27,North,-999,0.0,0.0,25,0.00,,,-99.99,FreeWX 2.04,2013-04-21 00:58:00,
2013-04-20 21:03:00,29.1,-1.5,30.27,North,-999,0.0,0.0,26,0.00,,,-99.99,FreeWX 2.04,2013-04-21 01:03:00,
2013-04-20 21:08:00,28.8,-0.2,30.27,North,-999,0.0,0.0,28,0.00,,,-99.99,FreeWX 2.04,2013-04-21 01:08:00,
2013-04-20 21:13:00,28.6,-0.4,30.27,North,-999,0.0,0.0,28,0.00,,,-99.99,FreeWX 2.04,2013-04-21 01:13:00,
2013-04-20 21:18:00,28.2,1.6,30.27,North,-999,0.0,0.0,31,0.00,,,-99.99,FreeWX 2.04,2013-04-21 01:18:00,
2013-04-20 21:23:00,28.0,1.4,30.30,North,-999,0.0,0.0,31,0.00,,,-99.99,FreeWX 2.04,2013-04-21 01:23:00,
2013-04-20 21:28:00,27.9,1.2,30.30,North,-999,0.0,0.0,31,0.00,,,-99.99,FreeWX 2.04,2013-04-21 01:28:00,
2013-04-20 21:33:00,27.7,1.0,30.30,North,-999,0.0,0.0,31,0.00,,,-99.99,FreeWX 2.04,2013-04-21 01:33:00,
2013-04-20 21:38:00,27.7,1.0,30.30,North,-999,0.0,0.0,31,0.00,,,-99.99,FreeWX 2.04,2013-04-21 01:38:00,
2013-04-20 21:43:00,27.5,0.9,30.30,North,-999,0.0,0.0,31,0.00,,,-99.99,FreeWX 2.04,2013-04-21 01:43:00,